| time (UTC) | temp F | wind direction | speed MPH | gust MPH | rain 1hr in | rain 24hr in | rain mn in | humidity % | barometer mb |
| 20260901014508 | 82 | 0 | 0.0 | 0.0 | 0.00 | 0.00 | 0.00 | 83 | 1012.0 |
| 20260901012503 | 83 | 0 | 0.0 | 0.0 | 0.00 | 0.00 | 0.00 | 81 | 1012.0 |
| 20260901012004 | 83 | 0 | 0.0 | 0.0 | 0.00 | 0.00 | 0.00 | 81 | 1012.0 |
| 20260901011004 | 84 | 0 | 0.0 | 0.0 | 0.00 | 0.00 | 0.00 | 80 | 1012.1 |
| 20260901010503 | 84 | 0 | 0.0 | 0.0 | 0.00 | 0.00 | 0.00 | 79 | 1012.1 |
| 20260901010009 | 84 | 0 | 0.0 | 0.0 | 0.00 | 0.00 | 0.00 | 79 | 1012.1 |
| 20260901005503 | 85 | 0 | 0.0 | 0.0 | 0.00 | 0.00 | 0.00 | 78 | 1012.2 |
| 20260901005003 | 85 | 0 | 0.0 | 0.0 | 0.00 | 0.00 | 0.00 | 78 | 1012.2 |
| 20260901004508 | 85 | 0 | 0.0 | 0.0 | 0.00 | 0.00 | 0.00 | 77 | 1012.2 |
| 20260901004003 | 86 | 0 | 0.0 | 0.0 | 0.00 | 0.00 | 0.00 | 76 | 1012.2 |
| 20260901003504 | 86 | 0 | 0.0 | 0.0 | 0.00 | 0.00 | 0.00 | 75 | 1012.3 |
| 20260901003008 | 86 | 0 | 0.0 | 0.0 | 0.00 | 0.00 | 0.00 | 75 | 1012.3 |
| 20260901002503 | 87 | 0 | 0.0 | 0.0 | 0.00 | 0.00 | 0.00 | 74 | 1012.3 |
| 20260901002003 | 87 | 0 | 0.0 | 0.0 | 0.00 | 0.00 | 0.00 | 73 | 1012.3 |
| 20260901001003 | 88 | 0 | 0.0 | 0.0 | 0.00 | 0.00 | 0.00 | 72 | 1012.3 |
| 20260901000504 | 88 | 0 | 0.0 | 0.0 | 0.00 | 0.00 | 0.00 | 72 | 1012.3 |
| 20260901000008 | 88 | 0 | 0.0 | 0.0 | 0.00 | 0.00 | 0.00 | 71 | 1012.3 |
| 20260831235503 | 88 | 0 | 0.0 | 0.0 | 0.00 | 0.00 | 0.00 | 70 | 1012.3 |
| 20260831234004 | 88 | 0 | 0.0 | 0.0 | 0.00 | 0.00 | 0.00 | 74 | 1012.4 |
| 20260831233503 | 88 | 164 | 0.0 | 2.0 | 0.00 | 0.00 | 0.00 | 71 | 1012.3 |
| 20260831233008 | 88 | 164 | 0.0 | 2.0 | 0.00 | 0.00 | 0.00 | 71 | 1012.3 |
| 20260831232503 | 88 | 0 | 0.0 | 0.0 | 0.00 | 0.00 | 0.00 | 72 | 1012.3 |
| 20260831232003 | 88 | 0 | 0.0 | 0.0 | 0.00 | 0.00 | 0.00 | 72 | 1012.4 |
| 20260831231508 | 88 | 0 | 0.0 | 0.0 | 0.00 | 0.00 | 0.00 | 73 | 1012.3 |
| 20260831230504 | 88 | 0 | 0.0 | 0.0 | 0.00 | 0.00 | 0.00 | 74 | 1012.2 |
| 20260831230008 | 88 | 0 | 0.0 | 0.0 | 0.00 | 0.00 | 0.00 | 74 | 1012.3 |
| 20260831225503 | 88 | 0 | 0.0 | 0.0 | 0.00 | 0.00 | 0.00 | 73 | 1012.4 |
| 20260831225003 | 88 | 0 | 0.0 | 0.0 | 0.00 | 0.00 | 0.00 | 73 | 1012.4 |
| 20260831224508 | 88 | 181 | 0.0 | 1.0 | 0.00 | 0.00 | 0.00 | 72 | 1012.2 |
| 20260831224003 | 88 | 174 | 0.0 | 2.0 | 0.00 | 0.00 | 0.00 | 72 | 1012.3 |
| 20260831223504 | 88 | 169 | 0.0 | 2.0 | 0.00 | 0.00 | 0.00 | 71 | 1012.3 |
| 20260831223009 | 89 | 163 | 0.0 | 2.0 | 0.00 | 0.00 | 0.00 | 70 | 1012.3 |
| 20260831222003 | 89 | 177 | 1.0 | 2.0 | 0.00 | 0.00 | 0.00 | 70 | 1012.4 |
| 20260831220503 | 89 | 170 | 0.0 | 2.0 | 0.00 | 0.00 | 0.00 | 71 | 1012.4 |
| 20260831220009 | 89 | 168 | 0.0 | 2.0 | 0.00 | 0.00 | 0.00 | 72 | 1012.5 |
| 20260831215503 | 89 | 162 | 0.0 | 1.0 | 0.00 | 0.00 | 0.00 | 73 | 1012.4 |
| 20260831215003 | 89 | 162 | 0.0 | 2.0 | 0.00 | 0.00 | 0.00 | 73 | 1012.4 |
| 20260831214508 | 89 | 164 | 0.0 | 2.0 | 0.00 | 0.00 | 0.00 | 72 | 1012.4 |
| 20260831213503 | 89 | 182 | 2.0 | 4.0 | 0.00 | 0.00 | 0.00 | 70 | 1012.5 |
| 20260831213008 | 89 | 184 | 1.0 | 4.0 | 0.00 | 0.00 | 0.00 | 70 | 1012.6 |
| 20260831212503 | 90 | 189 | 1.0 | 3.0 | 0.00 | 0.00 | 0.00 | 69 | 1012.6 |
| 20260831212004 | 90 | 198 | 0.0 | 3.0 | 0.00 | 0.00 | 0.00 | 69 | 1012.6 |
| 20260831211508 | 90 | 214 | 0.0 | 2.0 | 0.00 | 0.00 | 0.00 | 71 | 1012.6 |
| 20260831211004 | 90 | 201 | 1.0 | 2.0 | 0.00 | 0.00 | 0.00 | 69 | 1012.5 |
| 20260831210008 | 90 | 214 | 1.0 | 2.0 | 0.00 | 0.00 | 0.00 | 70 | 1012.6 |
| 20260831205504 | 90 | 187 | 1.0 | 4.0 | 0.00 | 0.00 | 0.00 | 70 | 1012.7 |
| 20260831205003 | 90 | 187 | 1.0 | 4.0 | 0.00 | 0.00 | 0.00 | 70 | 1012.7 |
| 20260831204003 | 90 | 210 | 1.0 | 4.0 | 0.00 | 0.00 | 0.00 | 68 | 1012.7 |
| 20260831203503 | 90 | 205 | 1.0 | 4.0 | 0.00 | 0.00 | 0.00 | 69 | 1012.8 |
| 20260831203008 | 91 | 218 | 1.0 | 2.0 | 0.00 | 0.00 | 0.00 | 68 | 1012.9 |
| 20260831202004 | 90 | 190 | 1.0 | 3.0 | 0.00 | 0.00 | 0.00 | 68 | 1013.0 |
| 20260831201508 | 91 | 202 | 1.0 | 3.0 | 0.00 | 0.00 | 0.00 | 68 | 1012.9 |
| 20260831201003 | 91 | 188 | 1.0 | 3.0 | 0.00 | 0.00 | 0.00 | 67 | 1012.9 |
| 20260831200503 | 91 | 184 | 1.0 | 4.0 | 0.00 | 0.00 | 0.00 | 67 | 1012.9 |
| 20260831195004 | 92 | 211 | 0.0 | 3.0 | 0.00 | 0.00 | 0.00 | 64 | 1012.9 |
| 20260831194003 | 92 | 183 | 1.0 | 3.0 | 0.00 | 0.00 | 0.00 | 64 | 1013.0 |
| 20260831193503 | 92 | 200 | 1.0 | 3.0 | 0.00 | 0.00 | 0.00 | 68 | 1013.1 |
| 20260831193008 | 91 | 292 | 0.0 | 3.0 | 0.00 | 0.00 | 0.00 | 67 | 1013.0 |
| 20260831192003 | 91 | 185 | 1.0 | 4.0 | 0.00 | 0.00 | 0.00 | 66 | 1012.9 |
| 20260831191003 | 91 | 235 | 0.0 | 2.0 | 0.00 | 0.00 | 0.00 | 67 | 1012.9 |
| 20260831190503 | 91 | 190 | 1.0 | 3.0 | 0.00 | 0.00 | 0.00 | 66 | 1012.9 |
| 20260831190008 | 90 | 206 | 1.0 | 3.0 | 0.00 | 0.00 | 0.00 | 64 | 1012.9 |
| 20260831185004 | 90 | 240 | 1.0 | 4.0 | 0.00 | 0.00 | 0.00 | 65 | 1013.0 |
| 20260831184508 | 90 | 288 | 1.0 | 5.0 | 0.00 | 0.00 | 0.00 | 65 | 1013.0 |
| 20260831184003 | 90 | 322 | 1.0 | 5.0 | 0.00 | 0.00 | 0.00 | 66 | 1013.0 |
| 20260831183504 | 90 | 150 | 0.0 | 2.0 | 0.00 | 0.00 | 0.00 | 69 | 1013.0 |
| 20260831183008 | 89 | 201 | 0.0 | 3.0 | 0.00 | 0.00 | 0.00 | 66 | 1013.0 |
| 20260831182504 | 88 | 195 | 0.0 | 3.0 | 0.00 | 0.00 | 0.00 | 68 | 1013.0 |
| 20260831182004 | 88 | 205 | 0.0 | 2.0 | 0.00 | 0.00 | 0.00 | 69 | 1013.0 |
| 20260831181508 | 88 | 266 | 0.0 | 1.0 | 0.00 | 0.00 | 0.00 | 68 | 1013.0 |
| 20260831181003 | 88 | 181 | 0.0 | 2.0 | 0.00 | 0.00 | 0.00 | 68 | 1013.0 |
| 20260831180009 | 88 | 223 | 1.0 | 3.0 | 0.00 | 0.00 | 0.00 | 72 | 1012.8 |
| 20260831175503 | 87 | 346 | 0.0 | 2.0 | 0.00 | 0.00 | 0.00 | 71 | 1012.9 |
| 20260831175004 | 87 | 349 | 0.0 | 2.0 | 0.00 | 0.00 | 0.00 | 69 | 1012.9 |
| 20260831174508 | 87 | 175 | 0.0 | 1.0 | 0.00 | 0.00 | 0.00 | 69 | 1012.9 |
| 20260831174003 | 86 | 184 | 0.0 | 1.0 | 0.00 | 0.00 | 0.00 | 70 | 1012.9 |
| 20260831173503 | 86 | 190 | 0.0 | 1.0 | 0.00 | 0.00 | 0.00 | 72 | 1013.0 |
| 20260831172504 | 85 | 358 | 0.0 | 4.0 | 0.00 | 0.00 | 0.00 | 73 | 1013.0 |
| 20260831171508 | 84 | 325 | 0.0 | 3.0 | 0.00 | 0.00 | 0.00 | 74 | 1012.9 |
| 20260831170504 | 83 | 302 | 1.0 | 4.0 | 0.00 | 0.00 | 0.00 | 77 | 1012.8 |
| 20260831170008 | 82 | 322 | 1.0 | 4.0 | 0.00 | 0.00 | 0.00 | 77 | 1012.8 |
| 20260831165503 | 82 | 347 | 1.0 | 4.0 | 0.00 | 0.00 | 0.00 | 77 | 1012.7 |
| 20260831165003 | 82 | 1 | 1.0 | 5.0 | 0.00 | 0.00 | 0.00 | 80 | 1012.7 |
| 20260831164508 | 82 | 349 | 1.0 | 5.0 | 0.00 | 0.00 | 0.00 | 78 | 1012.7 |
| 20260831164003 | 82 | 346 | 1.0 | 5.0 | 0.00 | 0.00 | 0.00 | 79 | 1012.7 |
| 20260831163503 | 81 | 343 | 1.0 | 5.0 | 0.00 | 0.00 | 0.00 | 80 | 1012.7 |
| 20260831162503 | 81 | 309 | 0.0 | 2.0 | 0.00 | 0.00 | 0.00 | 80 | 1012.7 |
| 20260831162004 | 80 | 300 | 1.0 | 3.0 | 0.00 | 0.00 | 0.00 | 81 | 1012.7 |
| 20260831161508 | 80 | 288 | 0.0 | 3.0 | 0.00 | 0.00 | 0.00 | 81 | 1012.7 |
| 20260831161003 | 79 | 304 | 0.0 | 2.0 | 0.00 | 0.00 | 0.00 | 81 | 1012.6 |
| 20260831160503 | 79 | 321 | 1.0 | 4.0 | 0.00 | 0.00 | 0.00 | 82 | 1012.6 |
| 20260831160008 | 79 | 338 | 2.0 | 4.0 | 0.00 | 0.00 | 0.00 | 81 | 1012.3 |
| 20260831155504 | 79 | 328 | 2.0 | 4.0 | 0.00 | 0.00 | 0.00 | 82 | 1012.2 |
| 20260831155004 | 79 | 327 | 2.0 | 5.0 | 0.00 | 0.00 | 0.00 | 82 | 1012.0 |
| 20260831154508 | 78 | 326 | 1.0 | 5.0 | 0.00 | 0.00 | 0.00 | 83 | 1012.1 |
| 20260831153503 | 78 | 347 | 1.0 | 4.0 | 0.00 | 0.00 | 0.00 | 82 | 1011.9 |
| 20260831153009 | 78 | 349 | 1.0 | 4.0 | 0.00 | 0.00 | 0.00 | 82 | 1012.1 |
| 20260831152503 | 78 | 325 | 0.0 | 3.0 | 0.00 | 0.00 | 0.00 | 83 | 1012.2 |
| 20260831152003 | 78 | 316 | 1.0 | 3.0 | 0.00 | 0.00 | 0.00 | 83 | 1011.9 |
| 20260831151003 | 78 | 334 | 1.0 | 4.0 | 0.00 | 0.00 | 0.00 | 84 | 1012.0 |
| 20260831150503 | 77 | 323 | 0.0 | 4.0 | 0.00 | 0.00 | 0.00 | 84 | 1012.0 |
| 20260831145504 | 77 | 339 | 0.0 | 3.0 | 0.00 | 0.00 | 0.00 | 85 | 1011.8 |
| 20260831145003 | 77 | 286 | 0.0 | 2.0 | 0.00 | 0.00 | 0.00 | 86 | 1011.9 |
| 20260831144508 | 77 | 0 | 0.0 | 0.0 | 0.00 | 0.00 | 0.00 | 86 | 1012.2 |
| 20260831143503 | 77 | 0 | 0.0 | 0.0 | 0.00 | 0.00 | 0.00 | 87 | 1011.4 |
| 20260831143008 | 77 | 0 | 0.0 | 0.0 | 0.00 | 0.00 | 0.00 | 88 | 1011.3 |
| 20260831142503 | 76 | 0 | 0.0 | 0.0 | 0.00 | 0.00 | 0.00 | 88 | 1011.4 |
| 20260831142003 | 76 | 0 | 0.0 | 0.0 | 0.00 | 0.00 | 0.00 | 89 | 1011.5 |
| 20260831141508 | 76 | 210 | 0.0 | 1.0 | 0.00 | 0.00 | 0.00 | 89 | 1011.5 |
| 20260831141003 | 76 | 210 | 0.0 | 1.0 | 0.00 | 0.00 | 0.00 | 89 | 1011.8 |
| 20260831140503 | 76 | 210 | 0.0 | 2.0 | 0.00 | 0.00 | 0.00 | 89 | 1011.7 |
| 20260831140008 | 76 | 209 | 0.0 | 2.0 | 0.00 | 0.00 | 0.00 | 90 | 1011.4 |
| 20260831135504 | 76 | 172 | 1.0 | 3.0 | 0.00 | 0.00 | 0.00 | 89 | 1011.3 |
| 20260831135003 | 76 | 182 | 1.0 | 5.0 | 0.00 | 0.00 | 0.00 | 89 | 1011.2 |
| 20260831134508 | 76 | 199 | 1.0 | 5.0 | 0.00 | 0.00 | 0.00 | 89 | 1010.6 |
| 20260831134003 | 76 | 326 | 2.0 | 9.0 | 0.00 | 0.00 | 0.00 | 88 | 1010.6 |
| 20260831133503 | 76 | 330 | 2.0 | 9.0 | 0.00 | 0.00 | 0.00 | 88 | 1011.1 |
| 20260831133008 | 76 | 316 | 2.0 | 8.0 | 0.00 | 0.00 | 0.00 | 88 | 1011.6 |
| 20260831132503 | 76 | 319 | 3.0 | 8.0 | 0.00 | 0.00 | 0.00 | 89 | 1011.9 |
| 20260831132003 | 76 | 326 | 3.0 | 9.0 | 0.00 | 0.00 | 0.00 | 89 | 1011.5 |
| 20260831131508 | 76 | 321 | 1.0 | 9.0 | 0.00 | 0.00 | 0.00 | 90 | 1011.8 |
| 20260831131003 | 75 | 303 | 0.0 | 8.0 | 0.00 | 0.00 | 0.00 | 92 | 1012.2 |
| 20260831130007 | 75 | 356 | 0.0 | 1.0 | 0.00 | 0.00 | 0.00 | 93 | 1011.7 |
| 20260831125504 | 75 | 356 | 0.0 | 1.0 | 0.00 | 0.00 | 0.00 | 94 | 1011.8 |
| 20260831124507 | 74 | 6 | 0.0 | 1.0 | 0.00 | 0.00 | 0.00 | 95 | 1011.6 |
| 20260831124004 | 74 | 6 | 0.0 | 1.0 | 0.00 | 0.00 | 0.00 | 95 | 1011.9 |
| 20260831123503 | 74 | 0 | 0.0 | 0.0 | 0.00 | 0.00 | 0.00 | 96 | 1011.6 |
| 20260831123008 | 74 | 0 | 0.0 | 0.0 | 0.00 | 0.00 | 0.00 | 97 | 1011.4 |
| 20260831122503 | 74 | 0 | 0.0 | 0.0 | 0.00 | 0.00 | 0.00 | 97 | 1011.3 |
| 20260831122003 | 73 | 0 | 0.0 | 0.0 | 0.00 | 0.00 | 0.00 | 97 | 1011.1 |
| 20260831121507 | 73 | 0 | 0.0 | 0.0 | 0.00 | 0.00 | 0.00 | 97 | 1011.1 |
| 20260831121003 | 73 | 0 | 0.0 | 0.0 | 0.00 | 0.00 | 0.00 | 97 | 1011.0 |
| 20260831120504 | 73 | 0 | 0.0 | 0.0 | 0.00 | 0.00 | 0.00 | 97 | 1010.7 |
| 20260831120008 | 73 | 0 | 0.0 | 0.0 | 0.00 | 0.00 | 0.00 | 97 | 1010.6 |
| 20260831115504 | 73 | 0 | 0.0 | 0.0 | 0.00 | 0.00 | 0.00 | 97 | 1010.7 |
| 20260831114507 | 73 | 0 | 0.0 | 0.0 | 0.00 | 0.00 | 0.00 | 97 | 1010.4 |
| 20260831114003 | 73 | 0 | 0.0 | 0.0 | 0.00 | 0.00 | 0.00 | 96 | 1010.3 |
| 20260831113504 | 73 | 0 | 0.0 | 0.0 | 0.00 | 0.00 | 0.00 | 96 | 1010.2 |
| 20260831113007 | 73 | 0 | 0.0 | 0.0 | 0.00 | 0.00 | 0.00 | 96 | 1010.2 |
| 20260831112504 | 73 | 0 | 0.0 | 0.0 | 0.00 | 0.00 | 0.00 | 96 | 1010.1 |
| 20260831112003 | 73 | 0 | 0.0 | 0.0 | 0.00 | 0.00 | 0.00 | 96 | 1010.0 |
| 20260831111507 | 73 | 0 | 0.0 | 0.0 | 0.00 | 0.00 | 0.00 | 96 | 1010.0 |
| 20260831111004 | 73 | 0 | 0.0 | 0.0 | 0.00 | 0.00 | 0.00 | 96 | 1009.9 |
| 20260831110008 | 73 | 0 | 0.0 | 0.0 | 0.00 | 0.00 | 0.00 | 96 | 1009.7 |
| 20260831105003 | 73 | 0 | 0.0 | 0.0 | 0.00 | 0.00 | 0.00 | 96 | 1009.9 |
| 20260831104508 | 73 | 0 | 0.0 | 0.0 | 0.00 | 0.00 | 0.00 | 96 | 1009.8 |
| 20260831104003 | 73 | 0 | 0.0 | 0.0 | 0.00 | 0.00 | 0.00 | 96 | 1009.8 |
| 20260831103504 | 73 | 0 | 0.0 | 0.0 | 0.00 | 0.00 | 0.00 | 96 | 1009.7 |
| 20260831103008 | 73 | 0 | 0.0 | 0.0 | 0.00 | 0.00 | 0.00 | 96 | 1009.7 |
| 20260831102503 | 73 | 0 | 0.0 | 0.0 | 0.00 | 0.00 | 0.00 | 96 | 1009.6 |
| 20260831102004 | 73 | 0 | 0.0 | 0.0 | 0.00 | 0.00 | 0.00 | 96 | 1009.6 |
| 20260831101507 | 73 | 0 | 0.0 | 0.0 | 0.00 | 0.00 | 0.00 | 96 | 1009.6 |
| 20260831101003 | 73 | 0 | 0.0 | 0.0 | 0.00 | 0.00 | 0.00 | 96 | 1009.5 |
| 20260831100504 | 73 | 0 | 0.0 | 0.0 | 0.00 | 0.00 | 0.00 | 96 | 1009.4 |
| 20260831100008 | 73 | 0 | 0.0 | 0.0 | 0.00 | 0.00 | 0.00 | 96 | 1009.6 |
| 20260831095504 | 74 | 0 | 0.0 | 0.0 | 0.00 | 0.00 | 0.00 | 96 | 1009.5 |
| 20260831095004 | 74 | 0 | 0.0 | 0.0 | 0.00 | 0.00 | 0.00 | 96 | 1009.4 |
| 20260831094507 | 74 | 0 | 0.0 | 0.0 | 0.00 | 0.00 | 0.00 | 96 | 1009.3 |
| 20260831093504 | 74 | 0 | 0.0 | 0.0 | 0.00 | 0.00 | 0.00 | 95 | 1009.2 |
| 20260831093008 | 74 | 0 | 0.0 | 0.0 | 0.00 | 0.00 | 0.00 | 95 | 1009.2 |
| 20260831092503 | 74 | 0 | 0.0 | 0.0 | 0.00 | 0.00 | 0.00 | 95 | 1009.1 |
| 20260831092003 | 74 | 0 | 0.0 | 0.0 | 0.00 | 0.00 | 0.00 | 95 | 1009.1 |
| 20260831091508 | 74 | 0 | 0.0 | 0.0 | 0.00 | 0.00 | 0.00 | 95 | 1009.2 |
| 20260831091003 | 74 | 0 | 0.0 | 0.0 | 0.00 | 0.00 | 0.00 | 95 | 1009.0 |
| 20260831090503 | 74 | 0 | 0.0 | 0.0 | 0.00 | 0.00 | 0.00 | 95 | 1009.1 |
| 20260831090008 | 74 | 0 | 0.0 | 0.0 | 0.00 | 0.00 | 0.00 | 95 | 1009.1 |
| 20260831085503 | 75 | 0 | 0.0 | 0.0 | 0.00 | 0.00 | 0.00 | 95 | 1009.2 |
| 20260831085003 | 75 | 6 | 0.0 | 1.0 | 0.00 | 0.00 | 0.00 | 95 | 1008.9 |
| 20260831084508 | 75 | 6 | 0.0 | 1.0 | 0.00 | 0.00 | 0.00 | 95 | 1008.9 |
| 20260831083503 | 75 | 0 | 0.0 | 0.0 | 0.00 | 0.00 | 0.00 | 95 | 1008.7 |
| 20260831083008 | 75 | 0 | 0.0 | 0.0 | 0.00 | 0.00 | 0.00 | 95 | 1008.7 |
| 20260831082503 | 75 | 0 | 0.0 | 0.0 | 0.00 | 0.00 | 0.00 | 95 | 1008.6 |
| 20260831082003 | 75 | 0 | 0.0 | 0.0 | 0.00 | 0.00 | 0.00 | 95 | 1008.5 |
| 20260831081508 | 75 | 0 | 0.0 | 0.0 | 0.00 | 0.00 | 0.00 | 95 | 1008.4 |
| 20260831081003 | 75 | 0 | 0.0 | 0.0 | 0.00 | 0.00 | 0.00 | 94 | 1008.4 |
| 20260831080008 | 75 | 0 | 0.0 | 0.0 | 0.00 | 0.00 | 0.00 | 94 | 1008.6 |
| 20260831075503 | 75 | 0 | 0.0 | 0.0 | 0.00 | 0.00 | 0.00 | 94 | 1008.6 |
| 20260831075003 | 75 | 0 | 0.0 | 0.0 | 0.00 | 0.00 | 0.00 | 94 | 1008.6 |
| 20260831074508 | 75 | 0 | 0.0 | 0.0 | 0.00 | 0.00 | 0.00 | 94 | 1008.5 |
| 20260831073503 | 75 | 0 | 0.0 | 0.0 | 0.00 | 0.00 | 0.00 | 94 | 1008.4 |
| 20260831073008 | 75 | 0 | 0.0 | 0.0 | 0.00 | 0.00 | 0.00 | 94 | 1008.5 |
| 20260831072503 | 75 | 0 | 0.0 | 0.0 | 0.00 | 0.00 | 0.00 | 94 | 1008.7 |
| 20260831071508 | 76 | 0 | 0.0 | 0.0 | 0.00 | 0.00 | 0.00 | 93 | 1008.6 |
| 20260831071004 | 76 | 0 | 0.0 | 0.0 | 0.00 | 0.00 | 0.00 | 94 | 1008.6 |
| 20260831070503 | 76 | 0 | 0.0 | 0.0 | 0.00 | 0.00 | 0.00 | 93 | 1008.6 |
| 20260831070008 | 76 | 0 | 0.0 | 0.0 | 0.00 | 0.00 | 0.00 | 93 | 1008.7 |
| 20260831065504 | 76 | 0 | 0.0 | 0.0 | 0.00 | 0.00 | 0.00 | 93 | 1008.9 |
| 20260831064507 | 76 | 0 | 0.0 | 0.0 | 0.00 | 0.00 | 0.00 | 92 | 1008.7 |
| 20260831064003 | 76 | 0 | 0.0 | 0.0 | 0.00 | 0.00 | 0.00 | 92 | 1008.8 |
| 20260831063503 | 76 | 0 | 0.0 | 0.0 | 0.00 | 0.00 | 0.00 | 92 | 1008.7 |
| 20260831063007 | 76 | 0 | 0.0 | 0.0 | 0.00 | 0.00 | 0.00 | 92 | 1008.8 |
| 20260831062504 | 76 | 0 | 0.0 | 0.0 | 0.00 | 0.00 | 0.00 | 91 | 1008.9 |
| 20260831062003 | 77 | 0 | 0.0 | 0.0 | 0.00 | 0.00 | 0.00 | 91 | 1008.8 |
| 20260831061507 | 77 | 0 | 0.0 | 0.0 | 0.00 | 0.00 | 0.00 | 91 | 1008.8 |
| 20260831061004 | 77 | 0 | 0.0 | 0.0 | 0.00 | 0.00 | 0.00 | 91 | 1008.8 |
| 20260831060007 | 77 | 0 | 0.0 | 0.0 | 0.00 | 0.00 | 0.00 | 90 | 1008.6 |
| 20260831055503 | 77 | 0 | 0.0 | 0.0 | 0.00 | 0.00 | 0.00 | 90 | 1008.6 |
| 20260831055004 | 78 | 0 | 0.0 | 0.0 | 0.00 | 0.00 | 0.00 | 90 | 1008.5 |
| 20260831054507 | 78 | 0 | 0.0 | 0.0 | 0.00 | 0.00 | 0.00 | 90 | 1008.6 |
| 20260831054003 | 78 | 0 | 0.0 | 0.0 | 0.00 | 0.00 | 0.00 | 89 | 1008.5 |
| 20260831053504 | 78 | 0 | 0.0 | 0.0 | 0.00 | 0.00 | 0.00 | 89 | 1008.3 |
| 20260831053007 | 78 | 0 | 0.0 | 0.0 | 0.00 | 0.00 | 0.00 | 89 | 1008.3 |
| 20260831052504 | 78 | 0 | 0.0 | 0.0 | 0.00 | 0.00 | 0.00 | 89 | 1008.4 |
| 20260831052004 | 78 | 0 | 0.0 | 0.0 | 0.00 | 0.00 | 0.00 | 89 | 1008.4 |
| 20260831051507 | 79 | 0 | 0.0 | 0.0 | 0.00 | 0.00 | 0.00 | 88 | 1008.3 |
| 20260831051004 | 79 | 0 | 0.0 | 0.0 | 0.00 | 0.00 | 0.00 | 88 | 1008.3 |
| 20260831050504 | 79 | 6 | 0.0 | 2.0 | 0.00 | 0.00 | 0.00 | 88 | 1008.3 |
| 20260831050009 | 79 | 5 | 1.0 | 3.0 | 0.00 | 0.00 | 0.00 | 88 | 1008.2 |
| 20260831045503 | 79 | 338 | 1.0 | 3.0 | 0.00 | 0.00 | 0.00 | 88 | 1008.2 |
| 20260831044508 | 78 | 0 | 0.0 | 0.0 | 0.00 | 0.00 | 0.00 | 90 | 1008.2 |
| 20260831044003 | 78 | 0 | 0.0 | 0.0 | 0.00 | 0.00 | 0.00 | 90 | 1008.2 |
| 20260831043504 | 78 | 0 | 0.0 | 0.0 | 0.00 | 0.00 | 0.00 | 90 | 1008.1 |
| 20260831043008 | 78 | 0 | 0.0 | 0.0 | 0.00 | 0.00 | 0.00 | 89 | 1008.0 |
| 20260831042504 | 78 | 0 | 0.0 | 0.0 | 0.00 | 0.00 | 0.00 | 89 | 1008.0 |
| 20260831042003 | 79 | 0 | 0.0 | 0.0 | 0.00 | 0.00 | 0.00 | 88 | 1008.1 |
| 20260831041003 | 79 | 0 | 0.0 | 0.0 | 0.00 | 0.00 | 0.00 | 88 | 1008.2 |
| 20260831040504 | 79 | 0 | 0.0 | 0.0 | 0.00 | 0.00 | 0.00 | 88 | 1008.2 |
| 20260831040007 | 79 | 0 | 0.0 | 0.0 | 0.00 | 0.00 | 0.00 | 88 | 1008.3 |
| 20260831035504 | 79 | 0 | 0.0 | 0.0 | 0.00 | 0.00 | 0.00 | 88 | 1008.4 |
| 20260831035004 | 79 | 0 | 0.0 | 0.0 | 0.00 | 0.00 | 0.00 | 88 | 1008.5 |
| 20260831034507 | 79 | 0 | 0.0 | 0.0 | 0.00 | 0.00 | 0.00 | 88 | 1008.5 |
| 20260831034003 | 79 | 0 | 0.0 | 0.0 | 0.00 | 0.00 | 0.00 | 87 | 1008.5 |
| 20260831033504 | 80 | 0 | 0.0 | 0.0 | 0.00 | 0.00 | 0.00 | 87 | 1008.6 |
| 20260831032504 | 80 | 0 | 0.0 | 0.0 | 0.00 | 0.00 | 0.00 | 86 | 1008.6 |
| 20260831032003 | 80 | 0 | 0.0 | 0.0 | 0.00 | 0.00 | 0.00 | 86 | 1008.6 |
| 20260831031507 | 80 | 0 | 0.0 | 0.0 | 0.00 | 0.00 | 0.00 | 86 | 1008.6 |
| 20260831031004 | 80 | 0 | 0.0 | 0.0 | 0.00 | 0.00 | 0.00 | 87 | 1008.6 |
| 20260831030007 | 80 | 0 | 0.0 | 0.0 | 0.00 | 0.00 | 0.00 | 86 | 1008.7 |
| 20260831025004 | 80 | 0 | 0.0 | 0.0 | 0.00 | 0.00 | 0.00 | 85 | 1008.7 |
| 20260831024507 | 80 | 0 | 0.0 | 0.0 | 0.00 | 0.00 | 0.00 | 84 | 1008.6 |
| 20260831023503 | 81 | 0 | 0.0 | 0.0 | 0.00 | 0.00 | 0.00 | 84 | 1008.6 |
| 20260831023008 | 81 | 0 | 0.0 | 0.0 | 0.00 | 0.00 | 0.00 | 84 | 1008.6 |
| 20260831022503 | 81 | 0 | 0.0 | 0.0 | 0.00 | 0.00 | 0.00 | 84 | 1008.5 |
| 20260831021508 | 82 | 0 | 0.0 | 0.0 | 0.00 | 0.00 | 0.00 | 83 | 1008.6 |
| 20260831021003 | 82 | 0 | 0.0 | 0.0 | 0.00 | 0.00 | 0.00 | 83 | 1008.5 |
| 20260831020503 | 82 | 0 | 0.0 | 0.0 | 0.00 | 0.00 | 0.00 | 83 | 1008.4 |
| 20260831020008 | 82 | 0 | 0.0 | 0.0 | 0.00 | 0.00 | 0.00 | 82 | 1008.4 |
| 20260831015503 | 82 | 0 | 0.0 | 0.0 | 0.00 | 0.00 | 0.00 | 82 | 1008.3 |
| 20260831015003 | 82 | 0 | 0.0 | 0.0 | 0.00 | 0.00 | 0.00 | 82 | 1008.3 |